TimeCDT,TemperatureF,Dew PointF,Humidity,Sea Level PressureIn,VisibilityMPH,Wind Direction,Wind SpeedMPH,Gust SpeedMPH,PrecipitationIn,Events,Conditions,WindDirDegrees,DateUTC
12:15 AM,55.4,51.8,88,29.97,8.0,WSW,4.6,-,N/A,,Partly Cloudy,250,2013-04-01 05:15:00
12:35 AM,55.4,53.6,94,29.97,4.0,West,3.5,-,N/A,,Mostly Cloudy,260,2013-04-01 05:35:00
12:55 AM,55.4,51.8,88,29.96,10.0,West,3.5,-,N/A,,Scattered Clouds,270,2013-04-01 05:55:00
1:35 AM,55.4,53.6,94,29.96,4.0,NW,3.5,-,N/A,,Mostly Cloudy,320,2013-04-01 06:35:00
1:55 AM,55.4,53.6,94,29.95,0.8,NW,5.8,-,N/A,,Overcast,320,2013-04-01 06:55:00
2:15 AM,55.4,53.6,94,29.95,0.8,NNW,6.9,-,N/A,,Overcast,340,2013-04-01 07:15:00
2:35 AM,55.4,53.6,94,29.96,1.5,West,3.5,-,N/A,,Overcast,280,2013-04-01 07:35:00
3:15 AM,55.4,53.6,94,29.95,2.0,NW,3.5,-,N/A,,Overcast,320,2013-04-01 08:15:00
3:35 AM,55.4,53.6,94,29.95,2.0,NW,6.9,-,N/A,,Overcast,320,2013-04-01 08:35:00
3:55 AM,55.4,53.6,94,29.96,2.0,Calm,Calm,-,N/A,,Overcast,0,2013-04-01 08:55:00
4:15 AM,55.4,53.6,94,29.97,3.0,NNW,4.6,-,N/A,,Overcast,330,2013-04-01 09:15:00
4:35 AM,55.4,53.6,94,29.97,3.0,NNW,4.6,-,N/A,,Overcast,330,2013-04-01 09:35:00
4:55 AM,55.4,53.6,94,29.98,3.0,NW,4.6,-,N/A,,Overcast,320,2013-04-01 09:55:00
5:15 AM,55.4,53.6,94,29.99,4.0,NW,4.6,-,N/A,,Overcast,320,2013-04-01 10:15:00
5:35 AM,55.4,53.6,94,30.00,4.0,NNW,3.5,-,N/A,,Overcast,330,2013-04-01 10:35:00
5:55 AM,55.4,53.6,94,30.01,5.0,North,3.5,-,N/A,,Overcast,10,2013-04-01 10:55:00
6:15 AM,55.4,53.6,94,30.02,5.0,NNE,3.5,-,N/A,,Overcast,30,2013-04-01 11:15:00
6:35 AM,55.4,53.6,94,30.03,5.0,Calm,Calm,-,N/A,,Overcast,0,2013-04-01 11:35:00
6:55 AM,55.4,51.8,88,30.04,5.0,North,4.6,-,N/A,,Overcast,350,2013-04-01 11:55:00
7:15 AM,55.4,51.8,88,30.04,5.0,North,3.5,-,N/A,,Overcast,360,2013-04-01 12:15:00
7:35 AM,55.4,53.6,94,30.06,5.0,NNE,3.5,-,N/A,,Overcast,20,2013-04-01 12:35:00
7:55 AM,55.4,51.8,88,30.06,5.0,NNE,4.6,-,N/A,,Overcast,30,2013-04-01 12:55:00
8:15 AM,55.4,51.8,88,30.08,5.0,North,5.8,-,N/A,,Overcast,10,2013-04-01 13:15:00
8:35 AM,57.2,53.6,88,30.08,7.0,North,4.6,-,N/A,,Overcast,10,2013-04-01 13:35:00
8:55 AM,57.2,53.6,88,30.08,10.0,North,4.6,-,N/A,,Overcast,10,2013-04-01 13:55:00
9:15 AM,60.8,53.6,77,30.08,9.0,NNW,3.5,-,N/A,,Overcast,330,2013-04-01 14:15:00
9:35 AM,60.8,53.6,77,30.09,10.0,NNW,3.5,-,N/A,,Overcast,330,2013-04-01 14:35:00
9:55 AM,60.8,53.6,77,30.09,10.0,North,5.8,-,N/A,,Mostly Cloudy,360,2013-04-01 14:55:00
10:15 AM,60.8,53.6,77,30.10,10.0,NW,5.8,-,N/A,,Overcast,320,2013-04-01 15:15:00
10:35 AM,62.6,53.6,72,30.10,10.0,NNE,5.8,-,N/A,,Overcast,20,2013-04-01 15:35:00
10:55 AM,62.6,53.6,72,30.11,10.0,NNW,5.8,-,N/A,,Overcast,340,2013-04-01 15:55:00
11:15 AM,62.6,53.6,72,30.11,10.0,North,8.1,-,N/A,,Overcast,350,2013-04-01 16:15:00
11:35 AM,62.6,53.6,72,30.12,10.0,WNW,6.9,-,N/A,,Overcast,290,2013-04-01 16:35:00
12:15 PM,64.4,53.6,68,30.11,10.0,Calm,Calm,-,N/A,,Overcast,0,2013-04-01 17:15:00
12:35 PM,64.4,53.6,68,30.11,10.0,NNW,6.9,-,N/A,,Overcast,340,2013-04-01 17:35:00
1:15 PM,66.2,53.6,64,30.10,10.0,NW,6.9,-,N/A,,Overcast,310,2013-04-01 18:15:00
1:35 PM,69.8,53.6,56,30.09,10.0,Calm,Calm,-,N/A,,Scattered Clouds,0,2013-04-01 18:35:00
1:55 PM,69.8,53.6,56,30.08,10.0,North,9.2,-,N/A,,Clear,360,2013-04-01 18:55:00
2:15 PM,69.8,53.6,56,30.07,10.0,NNW,5.8,-,N/A,,Partly Cloudy,340,2013-04-01 19:15:00
2:35 PM,69.8,53.6,56,30.06,10.0,NW,5.8,-,N/A,,Partly Cloudy,310,2013-04-01 19:35:00
3:15 PM,71.6,51.8,50,30.05,10.0,NNW,6.9,-,N/A,,Clear,330,2013-04-01 20:15:00
3:35 PM,73.4,51.8,47,30.05,10.0,NNW,5.8,-,N/A,,Clear,330,2013-04-01 20:35:00
3:55 PM,73.4,51.8,47,30.04,10.0,NNW,4.6,-,N/A,,Partly Cloudy,330,2013-04-01 20:55:00
4:15 PM,73.4,50.0,44,30.04,10.0,NE,6.9,-,N/A,,Partly Cloudy,40,2013-04-01 21:15:00
4:35 PM,73.4,48.2,41,30.04,10.0,NNW,6.9,-,N/A,,Clear,330,2013-04-01 21:35:00
4:55 PM,75.2,48.2,38,30.04,10.0,Calm,Calm,-,N/A,,Clear,0,2013-04-01 21:55:00
5:15 PM,73.4,48.2,41,30.03,10.0,West,3.5,-,N/A,,Clear,270,2013-04-01 22:15:00
5:35 PM,75.2,48.2,38,30.03,10.0,NW,5.8,-,N/A,,Clear,310,2013-04-01 22:35:00
5:55 PM,73.4,48.2,41,30.03,10.0,Calm,Calm,-,N/A,,Clear,0,2013-04-01 22:55:00
6:15 PM,73.4,48.2,41,30.03,10.0,Calm,Calm,-,N/A,,Clear,0,2013-04-01 23:15:00
6:35 PM,73.4,48.2,41,30.03,10.0,North,3.5,-,N/A,,Clear,350,2013-04-01 23:35:00
6:55 PM,68.0,51.8,56,30.03,10.0,Calm,Calm,-,N/A,,Clear,0,2013-04-01 23:55:00
7:16 PM,64.4,53.6,68,30.03,10.0,Calm,Calm,-,N/A,,Clear,0,2013-04-02 00:16:00
7:35 PM,60.8,53.6,77,30.03,10.0,Calm,Calm,-,N/A,,Clear,0,2013-04-02 00:35:00
7:55 PM,59.0,51.8,77,30.03,10.0,Calm,Calm,-,N/A,,Clear,0,2013-04-02 00:55:00
8:15 PM,57.2,51.8,82,30.04,10.0,Calm,Calm,-,N/A,,Clear,0,2013-04-02 01:15:00
8:35 PM,57.2,51.8,82,30.04,10.0,Calm,Calm,-,N/A,,Clear,0,2013-04-02 01:35:00
8:55 PM,55.4,48.2,77,30.04,10.0,Calm,Calm,-,N/A,,Clear,0,2013-04-02 01:55:00
9:15 PM,53.6,48.2,82,30.05,10.0,Calm,Calm,-,N/A,,Clear,0,2013-04-02 02:15:00
9:35 PM,55.4,50.0,82,30.05,10.0,Calm,Calm,-,N/A,,Clear,0,2013-04-02 02:35:00
9:55 PM,53.6,48.2,82,30.06,10.0,Calm,Calm,-,N/A,,Clear,0,2013-04-02 02:55:00
10:15 PM,53.6,48.2,82,30.07,10.0,Calm,Calm,-,N/A,,Clear,0,2013-04-02 03:15:00
10:35 PM,53.6,48.2,82,30.07,10.0,Calm,Calm,-,N/A,,Clear,0,2013-04-02 03:35:00
10:55 PM,53.6,48.2,82,30.07,10.0,Calm,Calm,-,N/A,,Clear,0,2013-04-02 03:55:00
11:15 PM,51.8,48.2,88,30.07,10.0,Calm,Calm,-,N/A,,Clear,0,2013-04-02 04:15:00
11:35 PM,51.8,48.2,88,30.07,10.0,Calm,Calm,-,N/A,,Clear,0,2013-04-02 04:35:00
11:55 PM,51.8,46.4,82,30.08,10.0,Calm,Calm,-,N/A,,Clear,0,2013-04-02 04:55:00